Location: Unspecified
(0.0000°N, 0.0000°E)
Time: 10:00:36
(UTC+00:00)

ARIANE 1 DEB - Pass Details

Date: 23 February 2026
Orbit: 1090 x 21662 km, 16.1° (Epoch: 9 December)

Event Time Altitude Azimuth Distance (km) Brightness Sun altitude
Rises 00:03:55 0° 261° (W) 16,861 ? -79.8°
Reaches altitude 10° 00:23:27 10° 257° (WSW) 18,832 ? -79.8°
Maximum altitude 05:02:32 87° 162° (SSE) 5,450 ? -17.4°
Drops below altitude 10° 05:18:52 10° 74° (ENE) 4,932 ? -13.4°
Sets 05:21:04 0° 74° (ENE) 5,436 ? -12.9°
